| time (UTC) | temp F | wind direction | speed MPH | gust MPH | rain 1hr in | rain 24hr in | rain mn in | humidity % | barometer mb |
| 20260904023030 | 83 | 200 | 2.0 | 6.0 | 0.00 | 0.00 | 0.00 | 84 | 1017.7 |
| 20260904021533 | 82 | 209 | 2.0 | 6.0 | 0.00 | 0.00 | 0.00 | 84 | 1017.7 |
| 20260904020029 | 83 | 219 | 1.0 | 5.0 | 0.00 | 0.00 | 0.00 | 84 | 1017.8 |
| 20260904014531 | 83 | 215 | 1.0 | 4.0 | 0.00 | 0.00 | 0.00 | 83 | 1017.7 |
| 20260904013028 | 83 | 208 | 1.0 | 6.0 | 0.00 | 0.00 | 0.00 | 83 | 1017.4 |
| 20260904011534 | 83 | 163 | 1.0 | 6.0 | 0.00 | 0.00 | 0.00 | 82 | 1017.2 |
| 20260904010039 | 83 | 200 | 1.0 | 7.0 | 0.00 | 0.00 | 0.00 | 82 | 1017.2 |
| 20260904004527 | 83 | 252 | 1.0 | 7.0 | 0.00 | 0.00 | 0.00 | 81 | 1017.0 |
| 20260904003028 | 83 | 198 | 2.0 | 5.0 | 0.00 | 0.00 | 0.00 | 81 | 1016.7 |
| 20260904001526 | 83 | 207 | 3.0 | 7.0 | 0.00 | 0.00 | 0.00 | 81 | 1016.4 |
| 20260904000030 | 83 | 207 | 2.0 | 7.0 | 0.00 | 0.00 | 0.00 | 80 | 1016.3 |
| 20260903234524 | 84 | 252 | 0.0 | 11.0 | 0.00 | 0.00 | 0.00 | 80 | 1016.2 |
| 20260903233024 | 85 | 198 | 3.0 | 5.0 | 0.00 | 0.00 | 0.00 | 79 | 1016.2 |
| 20260903231523 | 85 | 211 | 2.0 | 9.0 | 0.00 | 0.00 | 0.00 | 79 | 1016.5 |
| 20260903230024 | 85 | 216 | 1.0 | 10.0 | 0.00 | 0.00 | 0.00 | 79 | 1016.6 |
| 20260903224522 | 85 | 210 | 4.0 | 11.0 | 0.00 | 0.00 | 0.00 | 77 | 1016.7 |
| 20260903223031 | 86 | 222 | 3.0 | 11.0 | 0.00 | 0.00 | 0.00 | 78 | 1016.7 |
| 20260903221521 | 86 | 194 | 7.0 | 14.0 | 0.00 | 0.00 | 0.00 | 76 | 1016.7 |
| 20260903220020 | 87 | 186 | 5.0 | 14.0 | 0.00 | 0.00 | 0.00 | 74 | 1016.7 |
| 20260903214520 | 87 | 233 | 4.0 | 13.0 | 0.00 | 0.00 | 0.00 | 74 | 1016.7 |
| 20260903213020 | 87 | 171 | 7.0 | 12.0 | 0.00 | 0.00 | 0.00 | 73 | 1016.6 |
| 20260903211518 | 87 | 232 | 6.0 | 14.0 | 0.00 | 0.00 | 0.00 | 73 | 1016.6 |
| 20260903210019 | 87 | 178 | 4.0 | 12.0 | 0.00 | 0.00 | 0.00 | 73 | 1016.7 |
| 20260903204517 | 87 | 159 | 6.0 | 13.0 | 0.00 | 0.00 | 0.00 | 72 | 1016.7 |
| 20260903203026 | 88 | 191 | 5.0 | 11.0 | 0.00 | 0.00 | 0.00 | 71 | 1017.1 |
| 20260903201515 | 88 | 199 | 6.0 | 12.0 | 0.00 | 0.00 | 0.00 | 70 | 1017.2 |
| 20260903200016 | 88 | 209 | 7.0 | 11.0 | 0.00 | 0.00 | 0.00 | 70 | 1017.3 |
| 20260903194516 | 89 | 230 | 2.0 | 11.0 | 0.00 | 0.00 | 0.00 | 70 | 1017.6 |
| 20260903193015 | 90 | 182 | 4.0 | 9.0 | 0.00 | 0.00 | 0.00 | 65 | 1017.5 |
| 20260903191514 | 90 | 159 | 4.0 | 8.0 | 0.00 | 0.00 | 0.00 | 65 | 1017.7 |
| 20260903190015 | 90 | 184 | 3.0 | 8.0 | 0.00 | 0.00 | 0.00 | 67 | 1017.7 |
| 20260903184514 | 91 | 139 | 4.0 | 9.0 | 0.00 | 0.00 | 0.00 | 67 | 1018.2 |
| 20260903183013 | 91 | 153 | 3.0 | 8.0 | 0.00 | 0.00 | 0.00 | 67 | 1018.2 |
| 20260903181512 | 91 | 185 | 4.0 | 7.0 | 0.00 | 0.00 | 0.00 | 67 | 1018.2 |
| 20260903180011 | 92 | 149 | 3.0 | 8.0 | 0.00 | 0.00 | 0.00 | 67 | 1018.2 |
| 20260903174518 | 92 | 214 | 3.0 | 7.0 | 0.00 | 0.00 | 0.00 | 68 | 1018.2 |
| 20260903173010 | 91 | 130 | 4.0 | 10.0 | 0.00 | 0.00 | 0.00 | 69 | 1018.3 |
| 20260903171509 | 91 | 147 | 3.0 | 9.0 | 0.00 | 0.00 | 0.00 | 70 | 1018.5 |
| 20260903170009 | 91 | 136 | 5.0 | 9.0 | 0.00 | 0.00 | 0.00 | 70 | 1018.6 |
| 20260903164507 | 91 | 120 | 3.0 | 7.0 | 0.00 | 0.00 | 0.00 | 70 | 1018.6 |
| 20260903163006 | 90 | 134 | 3.0 | 7.0 | 0.00 | 0.00 | 0.00 | 70 | 1018.6 |
| 20260903161504 | 90 | 195 | 3.0 | 6.0 | 0.00 | 0.00 | 0.00 | 68 | 1018.7 |
| 20260903160005 | 89 | 146 | 4.0 | 7.0 | 0.00 | 0.00 | 0.00 | 70 | 1018.8 |
| 20260903154502 | 89 | 146 | 3.0 | 7.0 | 0.00 | 0.00 | 0.00 | 70 | 1018.8 |
| 20260903153059 | 89 | 153 | 3.0 | 8.0 | 0.00 | 0.00 | 0.00 | 72 | 1018.8 |
| 20260903151558 | 88 | 128 | 2.0 | 6.0 | 0.00 | 0.00 | 0.00 | 73 | 1018.8 |
| 20260903150105 | 87 | 161 | 3.0 | 7.0 | 0.00 | 0.00 | 0.00 | 75 | 1018.8 |
| 20260903144556 | 86 | 217 | 2.0 | 7.0 | 0.00 | 0.00 | 0.00 | 75 | 1018.8 |
| 20260903143049 | 86 | 207 | 3.0 | 9.0 | 0.00 | 0.00 | 0.00 | 76 | 1018.7 |
| 20260903141547 | 86 | 180 | 4.0 | 9.0 | 0.00 | 0.00 | 0.00 | 75 | 1018.4 |
| 20260903140047 | 86 | 194 | 3.0 | 7.0 | 0.00 | 0.00 | 0.00 | 76 | 1018.6 |
| 20260903134545 | 85 | 230 | 1.0 | 4.0 | 0.00 | 0.00 | 0.00 | 77 | 1018.5 |
| 20260903133042 | 84 | 230 | 1.0 | 6.0 | 0.00 | 0.00 | 0.00 | 79 | 1018.4 |
| 20260903131538 | 84 | 258 | 2.0 | 5.0 | 0.00 | 0.00 | 0.00 | 80 | 1018.3 |
| 20260903130039 | 83 | 279 | 0.0 | 5.0 | 0.00 | 0.00 | 0.00 | 81 | 1018.5 |
| 20260903124538 | 82 | 235 | 0.0 | 4.0 | 0.00 | 0.00 | 0.00 | 83 | 1018.5 |
| 20260903123033 | 81 | 238 | 1.0 | 4.0 | 0.00 | 0.00 | 0.00 | 85 | 1018.5 |
| 20260903121532 | 80 | 238 | 0.0 | 3.0 | 0.00 | 0.00 | 0.00 | 85 | 1018.4 |
| 20260903120034 | 79 | 227 | 0.0 | 3.0 | 0.00 | 0.00 | 0.00 | 86 | 1018.3 |
| 20260903114531 | 79 | 227 | 0.0 | 3.0 | 0.00 | 0.00 | 0.00 | 87 | 1018.3 |
| 20260903113035 | 79 | 227 | 0.0 | 0.0 | 0.00 | 0.00 | 0.00 | 87 | 1018.2 |
| 20260903111532 | 79 | 227 | 0.0 | 2.0 | 0.00 | 0.00 | 0.00 | 87 | 1018.1 |
| 20260903110029 | 79 | 227 | 0.0 | 0.0 | 0.00 | 0.00 | 0.00 | 87 | 1018.1 |
| 20260903104529 | 79 | 227 | 1.0 | 3.0 | 0.00 | 0.00 | 0.00 | 87 | 1017.7 |
| 20260903103028 | 79 | 226 | 0.0 | 3.0 | 0.00 | 0.00 | 0.00 | 87 | 1017.7 |
| 20260903101532 | 79 | 226 | 0.0 | 3.0 | 0.00 | 0.00 | 0.00 | 88 | 1017.6 |
| 20260903100026 | 79 | 226 | 1.0 | 3.0 | 0.00 | 0.00 | 0.00 | 87 | 1017.2 |
| 20260903094524 | 79 | 226 | 1.0 | 3.0 | 0.00 | 0.00 | 0.00 | 87 | 1017.2 |
| 20260903093034 | 79 | 225 | 1.0 | 3.0 | 0.00 | 0.00 | 0.00 | 87 | 1017.3 |
| 20260903091522 | 79 | 225 | 1.0 | 3.0 | 0.00 | 0.00 | 0.00 | 88 | 1017.2 |
| 20260903090030 | 79 | 215 | 1.0 | 3.0 | 0.00 | 0.00 | 0.00 | 87 | 1017.2 |
| 20260903084524 | 79 | 215 | 1.0 | 3.0 | 0.00 | 0.00 | 0.00 | 87 | 1017.1 |
| 20260903083021 | 80 | 215 | 1.0 | 3.0 | 0.00 | 0.00 | 0.00 | 87 | 1017.1 |
| 20260903081520 | 80 | 215 | 0.0 | 2.0 | 0.00 | 0.00 | 0.00 | 87 | 1017.1 |
| 20260903080024 | 80 | 215 | 0.0 | 2.0 | 0.00 | 0.00 | 0.00 | 87 | 1016.7 |
| 20260903074516 | 80 | 215 | 1.0 | 3.0 | 0.00 | 0.00 | 0.00 | 87 | 1016.8 |
| 20260903073026 | 81 | 215 | 0.0 | 0.0 | 0.00 | 0.00 | 0.00 | 87 | 1016.7 |
| 20260903071528 | 81 | 215 | 0.0 | 2.0 | 0.00 | 0.00 | 0.00 | 86 | 1016.7 |
| 20260903070013 | 81 | 215 | 0.0 | 3.0 | 0.00 | 0.00 | 0.00 | 86 | 1016.6 |
| 20260903064512 | 81 | 215 | 0.0 | 2.0 | 0.00 | 0.00 | 0.00 | 85 | 1016.7 |
| 20260903063011 | 81 | 214 | 0.0 | 4.0 | 0.00 | 0.00 | 0.00 | 85 | 1016.6 |
| 20260903061512 | 81 | 214 | 0.0 | 4.0 | 0.00 | 0.00 | 0.00 | 85 | 1016.7 |
| 20260903060013 | 81 | 214 | 2.0 | 5.0 | 0.00 | 0.00 | 0.00 | 85 | 1016.7 |
| 20260903054509 | 81 | 215 | 0.0 | 0.0 | 0.00 | 0.00 | 0.00 | 85 | 1016.8 |
| 20260903053011 | 81 | 215 | 0.0 | 0.0 | 0.00 | 0.00 | 0.00 | 85 | 1016.9 |
| 20260903051507 | 81 | 215 | 0.0 | 0.0 | 0.00 | 0.00 | 0.00 | 84 | 1017.2 |
| 20260903050017 | 81 | 215 | 0.0 | 0.0 | 0.00 | 0.00 | 0.00 | 83 | 1017.2 |
| 20260903044504 | 82 | 215 | 0.0 | 0.0 | 0.00 | 0.00 | 0.00 | 83 | 1017.2 |
| 20260903043006 | 82 | 215 | 0.0 | 4.0 | 0.00 | 0.00 | 0.00 | 82 | 1017.2 |
| 20260903041504 | 82 | 209 | 0.0 | 5.0 | 0.00 | 0.00 | 0.00 | 82 | 1017.2 |
| 20260903034605 | 82 | 217 | 2.0 | 4.0 | 0.00 | 0.00 | 0.00 | 82 | 1017.4 |
| 20260903033121 | 82 | 222 | 1.0 | 5.0 | 0.00 | 0.00 | 0.00 | 81 | 1017.3 |
| 20260903031634 | 83 | 203 | 1.0 | 6.0 | 0.00 | 0.00 | 0.00 | 81 | 1017.2 |
| 20260903024558 | 83 | 227 | 3.0 | 8.0 | 0.00 | 0.00 | 0.00 | 82 | 1016.8 |